N8GD Weather Reports


Display with metric or nautical units.
time (UTC)temp
F
wind
direction
speed
MPH
gust
MPH
rain 1hr
in
rain 24hr
in
rain mn
in
humidity
%
barometer
mb
20260504041841 46 215 0.0 0.0 0.00 0.00 0.00 73 1014.3
20260504040341 46 215 0.0 0.0 0.00 0.00 0.00 72 1014.4
20260504034842 45 215 0.0 1.0 0.00 0.00 0.00 73 1014.7
20260504033341 44 225 1.0 1.0 0.00 0.00 0.00 73 1014.7
20260504032145 42 243 0.0 1.0 0.00 0.00 0.00 78 1014.5
20260504031842 42 243 0.0 1.0 0.00 0.00 0.00 78 1014.5
20260504030341 42 242 0.0 0.0 0.00 0.00 0.00 79 1014.6
20260504024841 42 242 0.0 0.0 0.00 0.00 0.00 76 1014.5
20260504023342 43 242 0.0 0.0 0.00 0.00 0.00 73 1014.6
20260504022145 44 242 0.0 0.0 0.00 0.00 0.00 72 1014.8
20260504021841 44 242 0.0 0.0 0.00 0.00 0.00 71 1014.8
20260504020342 45 242 0.0 0.0 0.00 0.00 0.00 69 1014.7
20260504015357 46 242 0.0 0.0 0.00 0.00 0.00 66 1014.7
20260504015146 46 242 0.0 0.0 0.00 0.00 0.00 66 1014.7
20260504013856 46 242 0.0 0.0 0.00 0.00 0.00 66 1014.7
20260504012357 48 242 0.0 0.0 0.00 0.00 0.00 61 1014.5
20260504012149 48 242 0.0 0.0 0.00 0.00 0.00 61 1014.5
20260504010856 50 242 0.0 0.0 0.00 0.00 0.00 59 1014.6
20260504010701 50 242 0.0 0.0 0.00 0.00 0.00 59 1014.6
20260504005357 51 242 0.0 0.0 0.00 0.00 0.00 57 1014.5
20260504005152 51 242 0.0 0.0 0.00 0.00 0.00 56 1014.5
20260504003858 52 242 0.0 0.0 0.00 0.00 0.00 53 1014.4
20260504003645 53 242 0.0 0.0 0.00 0.00 0.00 51 1014.4
20260504002357 53 242 0.0 1.0 0.00 0.00 0.00 49 1014.4
20260504000858 54 270 0.0 6.0 0.00 0.00 0.00 47 1014.4
20260503235357 55 239 1.0 6.0 0.00 0.00 0.00 46 1014.6
20260503233858 55 238 0.0 12.0 0.00 0.00 0.00 45 1014.7
20260503232357 56 254 5.0 8.0 0.00 0.00 0.00 43 1014.8
20260503230858 56 221 4.0 12.0 0.00 0.00 0.00 44 1014.9
20260503225357 57 209 1.0 14.0 0.00 0.00 0.00 43 1014.9
20260503223857 57 260 5.0 13.0 0.00 0.00 0.00 42 1014.9
20260503222357 58 265 13.0 11.0 0.00 0.00 0.00 42 1015.0
20260503220857 58 117 1.0 14.0 0.00 0.00 0.00 41 1015.0
20260503215357 58 287 1.0 13.0 0.00 0.00 0.00 43 1015.0
20260503213857 57 216 6.0 13.0 0.00 0.00 0.00 42 1015.0
20260503212357 58 283 3.0 16.0 0.00 0.00 0.00 40 1015.0
20260503210857 58 224 0.0 14.0 0.00 0.00 0.00 44 1015.0
20260503205357 59 296 3.0 9.0 0.00 0.00 0.00 43 1015.0
20260503203857 58 234 2.0 14.0 0.00 0.00 0.00 41 1015.3
20260503202358 58 227 2.0 12.0 0.00 0.00 0.00 39 1015.6
20260503200856 57 234 11.0 12.0 0.00 0.00 0.00 43 1015.8
20260503195358 58 253 5.0 15.0 0.00 0.00 0.00 40 1016.1
20260503193856 58 206 4.0 13.0 0.00 0.00 0.00 40 1016.3
20260503193645 58 234 2.0 13.0 0.00 0.00 0.00 42 1016.3
20260503192358 58 237 5.0 14.0 0.00 0.00 0.00 41 1016.6
20260503190856 57 209 6.0 14.0 0.00 0.00 0.00 45 1016.8
20260503185357 56 265 3.0 17.0 0.00 0.00 0.00 49 1017.0
20260503183856 56 216 6.0 14.0 0.00 0.00 0.00 43 1017.2
20260503182358 56 212 5.0 12.0 0.00 0.00 0.00 45 1017.3
20260503180856 55 285 4.0 13.0 0.00 0.00 0.00 46 1017.3
20260503175359 55 281 7.0 13.0 0.00 0.00 0.00 46 1017.5
20260503173743 54 219 4.0 16.0 0.00 0.00 0.00 46 1017.9
20260503172242 54 302 0.0 19.0 0.00 0.00 0.00 45 1017.9
20260503170743 54 237 4.0 11.0 0.00 0.01 0.00 42 1018.2
20260503150742 49 225 2.0 12.0 0.00 0.01 0.00 51 1019.1
20260503130742 42 290 3.0 12.0 0.00 0.03 0.00 73 1019.6
20260503110744 30 280 0.0 0.0 0.00 0.06 0.00 93 1018.6
20260503110643 30 280 0.0 0.0 0.00 0.06 0.00 93 1018.6
20260503080755 34 280 0.0 0.0 0.00 0.06 0.00 92 1018.0
20260503080722 34 280 0.0 0.0 0.00 0.06 0.00 92 1018.0
20260503072255 34 280 0.0 0.0 0.00 0.06 0.00 92 1017.6
20260503072157 34 280 0.0 0.0 0.00 0.06 0.00 92 1017.6
20260503070756 35 280 0.0 0.0 0.00 0.06 0.00 92 1017.5
20260503053754 34 280 0.0 0.0 0.00 0.07 0.00 91 1018.0
20260503052255 33 280 0.0 0.0 0.00 0.07 0.00 91 1018.1
20260503052158 33 280 0.0 0.0 0.00 0.07 0.00 91 1018.1
20260503050755 34 280 0.0 0.0 0.00 0.07 0.00 90 1018.1
20260503045254 34 280 0.0 0.0 0.00 0.07 0.00 89 1018.1
20260503045202 34 280 0.0 0.0 0.00 0.07 0.00 89 1018.1
20260503043754 34 280 0.0 0.0 0.00 0.07 0.00 89 1018.1
20260503042254 35 280 0.0 0.0 0.00 0.07 0.00 88 1018.2
20260503042156 35 280 0.0 0.0 0.00 0.07 0.00 88 1018.2